Location: ?
(35.4064°N, 139.3593°E)
Time: 13:56:05
(UTC+00:00)

IDEFIX/ARIANE 42P - Pass Details

Date: 18 April 2024
Orbit: 783 x 799 km, 98.5° (Epoch: 18 May)

Event Time Altitude Azimuth Distance (km) Brightness Sun altitude
Rises 16:51:52 0° 6° (N) 3,284 6.5 -34.2°
Reaches altitude 10° 16:54:15 10° 1° (N) 2,354 5.5 -33.9°
Enters shadow 16:56:43 27° 347° (NNW) 1,482 4.2 -33.6°
